When you browse on this site, cookies collect data to enhance your experience and personalize the content and advertising you see.
Visit our Privacy Policy to learn more. By continuing to use the site, you agree to this use of cookies and data.
  • In Portugal
  • List of Countries
  • For 7 days
  • Water Temperature
  • Weather Map
  • Weather Widgets
  • user-avatar
    Login

    Hourly Weather Visimo-Utkinsk

    Today, 29 May, Friday

    Time Temperature Precipitation Wind Pressure Humidity
    00:00 +10°C° 0 mm 1 mps 738 mmHg 89%
    01:00 +10°C° 0 mm 1 mps 738 mmHg 92%
    02:00 +10°C° 0 mm 1 mps 738 mmHg 92%
    03:00 +10°C° 0 mm 1 mps 738 mmHg 92%
    04:00 +9°C° 0 mm 1 mps 738 mmHg 89%
    05:00 +10°C° 0 mm 2 mps 738 mmHg 81%
    06:00 +13°C° 0 mm 2 mps 738 mmHg 74%
    07:00 +15°C° 0 mm 2 mps 738 mmHg 66%
    08:00 +17°C° 0 mm 3 mps 738 mmHg 59%
    09:00 +18°C° 0 mm 3 mps 738 mmHg 52%
    10:00 +19°C° 0 mm 4 mps 739 mmHg 45%
    11:00 +20°C° 0 mm 4 mps 739 mmHg 45%
    12:00 +20°C° 0 mm 4 mps 738 mmHg 45%
    13:00 +20°C° 0 mm 4 mps 738 mmHg 46%
    14:00 +20°C° 0 mm 4 mps 738 mmHg 46%
    15:00 +20°C° 0 mm 3 mps 738 mmHg 46%
    16:00 +20°C° 0 mm 3 mps 738 mmHg 46%
    17:00 +20°C° 0 mm 3 mps 738 mmHg 52%
    18:00 +19°C° 0 mm 2 mps 738 mmHg 57%
    19:00 +18°C° 0 mm 2 mps 738 mmHg 62%
    20:00 +16°C° 0 mm 2 mps 738 mmHg 68%
    21:00 +14°C° 0 mm 1 mps 738 mmHg 74%
    22:00 +12°C° 0 mm 1 mps 738 mmHg 81%
    23:00 +12°C° 0 mm 1 mps 738 mmHg 82%

    Tomorrow, 30 May, Saturday

    Time Temperature Precipitation Wind Pressure Humidity
    00:00 +11°C° 0 mm 1 mps 738 mmHg 84%
    01:00 +11°C° 0 mm 1 mps 737 mmHg 85%
    02:00 +11°C° 0 mm 1 mps 737 mmHg 86%
    03:00 +11°C° 0 mm 1 mps 738 mmHg 87%
    04:00 +11°C° 0 mm 1 mps 738 mmHg 88%
    05:00 +13°C° 0 mm 2 mps 738 mmHg 81%
    06:00 +15°C° 0 mm 2 mps 737 mmHg 74%
    07:00 +16°C° 0 mm 2 mps 737 mmHg 67%
    08:00 +18°C° 0 mm 3 mps 737 mmHg 62%
    09:00 +19°C° 0 mm 3 mps 737 mmHg 58%
    10:00 +20°C° 0 mm 4 mps 737 mmHg 53%
    11:00 +21°C° 0 mm 4 mps 737 mmHg 52%
    12:00 +22°C° 0 mm 3 mps 737 mmHg 50%
    13:00 +22°C° 0 mm 3 mps 736 mmHg 48%
    14:00 +22°C° 0 mm 3 mps 736 mmHg 53%
    15:00 +21°C° 0 mm 3 mps 736 mmHg 58%
    16:00 +20°C° 0 mm 2 mps 736 mmHg 62%
    17:00 +20°C° 0 mm 2 mps 735 mmHg 67%
    18:00 +19°C° 0 mm 2 mps 735 mmHg 71%
    19:00 +19°C° 0 mm 1 mps 735 mmHg 75%
    20:00 +16°C° 0 mm 1 mps 735 mmHg 82%
    21:00 +15°C° 0 mm 2 mps 735 mmHg 88%
    22:00 +13°C° 0 mm 2 mps 734 mmHg 94%
    23:00 +12°C° 0 mm 2 mps 734 mmHg 95%

    Day after tomorrow, 31 May, Sunday

    Time Temperature Precipitation Wind Pressure Humidity
    00:00 +12°C° 0 mm 2 mps 734 mmHg 95%
    01:00 +10°C° 0 mm 2 mps 734 mmHg 95%
    02:00 +10°C° 0 mm 2 mps 733 mmHg 95%
    03:00 +10°C° 0 mm 2 mps 733 mmHg 94%
    04:00 +10°C° 0 mm 2 mps 733 mmHg 94%
    05:00 +10°C° 0 mm 3 mps 732 mmHg 90%
    06:00 +10°C° 0 mm 3 mps 732 mmHg 87%
    07:00 +11°C° 0 mm 4 mps 732 mmHg 84%
    08:00 +10°C° 0 mm 4 mps 732 mmHg 81%
    09:00 +9°C° 0 mm 5 mps 731 mmHg 79%
    10:00 +9°C° 0 mm 5 mps 731 mmHg 76%
    11:00 +9°C° 0 mm 5 mps 731 mmHg 76%
    12:00 +9°C° 0 mm 5 mps 731 mmHg 75%
    13:00 +8°C° 0 mm 5 mps 730 mmHg 75%
    14:00 +8°C° 0.1 mm 5 mps 730 mmHg 76%
    15:00 +8°C° 0.1 mm 5 mps 730 mmHg 77%
    16:00 +8°C° 0.1 mm 5 mps 730 mmHg 78%
    17:00 +7°C° 1.2 mm 5 mps 729 mmHg 84%
    18:00 +6°C° 1.2 mm 5 mps 729 mmHg 89%
    19:00 +5°C° 1.2 mm 6 mps 729 mmHg 95%
    20:00 +6°C° 2.6 mm 5 mps 728 mmHg 95%
    21:00 +5°C° 2.6 mm 5 mps 728 mmHg 96%
    22:00 +5°C° 2.6 mm 5 mps 728 mmHg 96%
    23:00 +6°C° 3.4 mm 5 mps 728 mmHg 96%

    1 June, Monday

    Time Temperature Precipitation Wind Pressure Humidity
    00:00 +6°C° 3.4 mm 5 mps 728 mmHg 96%
    01:00 +6°C° 3.4 mm 5 mps 728 mmHg 96%
    02:00 +6°C° 0 mm 4 mps 728 mmHg 97%
    03:00 +6°C° 0 mm 4 mps 728 mmHg 97%
    04:00 +7°C° 0 mm 3 mps 728 mmHg 97%
    05:00 +7°C° 0.2 mm 3 mps 728 mmHg 97%
    06:00 +7°C° 0.2 mm 3 mps 729 mmHg 97%
    07:00 +7°C° 0.2 mm 2 mps 729 mmHg 97%
    08:00 +7°C° 0.3 mm 3 mps 729 mmHg 97%
    09:00 +7°C° 0.3 mm 3 mps 729 mmHg 96%
    10:00 +8°C° 0.3 mm 3 mps 729 mmHg 95%
    11:00 +8°C° 0.2 mm 3 mps 730 mmHg 95%
    12:00 +8°C° 0.2 mm 3 mps 730 mmHg 95%
    13:00 +8°C° 0.2 mm 3 mps 730 mmHg 95%
    14:00 +9°C° 0.1 mm 3 mps 730 mmHg 95%
    15:00 +9°C° 0.1 mm 3 mps 730 mmHg 96%
    16:00 +9°C° 0.1 mm 3 mps 730 mmHg 96%
    17:00 +9°C° 0 mm 3 mps 730 mmHg 96%
    18:00 +9°C° 0 mm 2 mps 730 mmHg 96%
    19:00 +9°C° 0 mm 2 mps 730 mmHg 97%
    20:00 +8°C° 0 mm 2 mps 730 mmHg 97%
    21:00 +8°C° 0 mm 2 mps 730 mmHg 97%
    22:00 +8°C° 0 mm 2 mps 731 mmHg 98%
    23:00 +8°C° 0.1 mm 2 mps 731 mmHg 98%

    2 June, Tuesday

    Time Temperature Precipitation Wind Pressure Humidity
    00:00 +8°C° 0.1 mm 2 mps 731 mmHg 98%
    01:00 +8°C° 0.1 mm 2 mps 731 mmHg 98%
    02:00 +8°C° 0 mm 2 mps 731 mmHg 98%
    03:00 +8°C° 0 mm 2 mps 731 mmHg 98%
    04:00 +8°C° 0 mm 2 mps 731 mmHg 98%
    05:00 +8°C° 0 mm 2 mps 731 mmHg 98%
    06:00 +10°C° 0 mm 1 mps 732 mmHg 97%
    07:00 +10°C° 0 mm 1 mps 732 mmHg 97%
    08:00 +10°C° 0.1 mm 1 mps 732 mmHg 95%
    09:00 +10°C° 0.1 mm 2 mps 733 mmHg 94%
    10:00 +12°C° 0.1 mm 2 mps 733 mmHg 92%
    11:00 +10°C° 0 mm 2 mps 733 mmHg 92%
    12:00 +10°C° 0 mm 2 mps 734 mmHg 93%
    13:00 +10°C° 0 mm 2 mps 734 mmHg 93%
    14:00 +12°C° 0 mm 2 mps 734 mmHg 91%
    15:00 +12°C° 0 mm 2 mps 734 mmHg 88%
    16:00 +13°C° 0 mm 2 mps 734 mmHg 86%
    17:00 +13°C° 0 mm 2 mps 735 mmHg 87%
    18:00 +12°C° 0 mm 2 mps 735 mmHg 89%
    19:00 +12°C° 0 mm 2 mps 735 mmHg 90%
    20:00 +11°C° 0 mm 1 mps 735 mmHg 93%
    21:00 +11°C° 0 mm 1 mps 735 mmHg 95%
    22:00 +10°C° 0 mm 1 mps 735 mmHg 97%
    23:00 +10°C° 0 mm 1 mps 735 mmHg 97%

    3 June, Wednesday

    Time Temperature Precipitation Wind Pressure Humidity
    00:00 +10°C° 0 mm 1 mps 735 mmHg 97%
    01:00 +10°C° 0 mm 1 mps 735 mmHg 97%
    02:00 +9°C° 0 mm 2 mps 735 mmHg 97%
    03:00 +9°C° 0 mm 2 mps 735 mmHg 97%
    04:00 +9°C° 0 mm 2 mps 735 mmHg 97%
    05:00 +9°C° 0 mm 2 mps 734 mmHg 96%
    06:00 +9°C° 0 mm 2 mps 734 mmHg 95%
    07:00 +10°C° 0 mm 2 mps 734 mmHg 94%
    08:00 +10°C° 0 mm 2 mps 734 mmHg 93%
    09:00 +10°C° 0 mm 3 mps 734 mmHg 92%
    10:00 +10°C° 0 mm 3 mps 733 mmHg 91%
    11:00 +11°C° 0 mm 3 mps 733 mmHg 88%
    12:00 +12°C° 0 mm 4 mps 733 mmHg 84%
    13:00 +13°C° 0 mm 4 mps 733 mmHg 81%
    14:00 +13°C° 0 mm 4 mps 733 mmHg 80%
    15:00 +13°C° 0 mm 4 mps 733 mmHg 79%
    16:00 +13°C° 0 mm 4 mps 733 mmHg 78%
    17:00 +13°C° 0 mm 4 mps 733 mmHg 81%
    18:00 +12°C° 0 mm 4 mps 733 mmHg 83%
    19:00 +12°C° 0 mm 4 mps 733 mmHg 86%
    20:00 +12°C° 0.1 mm 3 mps 733 mmHg 87%
    21:00 +11°C° 0.1 mm 3 mps 733 mmHg 88%
    22:00 +11°C° 0.1 mm 3 mps 733 mmHg 89%
    23:00 +11°C° 0 mm 3 mps 733 mmHg 90%
    Show more